Regional Weather Roundup
Issued by NWS

Home | Current Version | Previous Version | Text Only | Print | Product List | Glossary Off
Versions: 1 2 3 4 5 6 7 8 9 10 11 12 13 14 15 16 17 18 19 20 21 22 23 24 25 26 27 28 29 30 31 32 33 34 35 36 37 38 39 40 41 42 43 44 45 46 47 48 49 50

000
ASUS43 KLOT 260900
RWRIL

ILLINOIS REGIONAL WEATHER ROUNDUP
NATIONAL WEATHER SERVICE CHICAGO/ROMEOVILLE IL
400 AM CDT SUN APR 26 2015

NOTE: "FAIR" INDICATES FEW OR NO CLOUDS BELOW 12,000 FEET WITH NO
SIGNIFICANT WEATHER AND/OR OBSTRUCTIONS TO VISIBILITY.

* THESE STATIONS ARE NOT UNDER NWS QUALITY CONTROL. THEY ALSO MAY NOT
  REPORT WEATHER SUCH AS PRECIPITATION OR FOG.

ILZ001-002-007-009-015-016-024-261000-
NORTHWEST ILLINOIS

CITY           SKY/WX    TMP DP  RH WIND       PRES   REMARKS
MOLINE         CLEAR     41  31  67 N3        29.93R
$$

ILZ003-004-008-010-011-017-018-261000-
NORTH CENTRAL ILLINOIS

CITY           SKY/WX    TMP DP  RH WIND       PRES   REMARKS
ROCKFORD       NOT AVBL
$$

ILZ005-006-012>014-019>023-261000-
NORTHEAST ILLINOIS

CITY           SKY/WX    TMP DP  RH WIND       PRES   REMARKS
CHICAGO-OHARE  CLEAR     36  29  75 N7        29.90R WCI  30
CHICAGO-MIDWAY PTCLDY    41  32  70 N6        29.90R
AURORA         CLEAR     37  27  67 N9        29.90S WCI  30
WAUKEGAN       NOT AVBL
DUPAGE AIRPORT CLEAR     33  27  78 N7        29.91R WCI  27
WHEELING       CLEAR     35  29  78 N6        29.93R WCI  30
NORTHERLY ISL    N/A     43  33  68 NE13        N/A
$$

LMZ740>746-261000-
SOUTHERN LAKE MICHIGAN

STATION/POSITION SKY/WX   TEMP    WIND        PRES    VSBY  WAVE
                          AIR SEA DIR/SP/G                  HT/PER
                          (F)     (DEG/KT/KT) (MB)    (MI)  (FT/S)
HARRISON CRIB              41      40/ 16/ 19   N/A
BURNHAM HARBOR             42      30/ 12       N/A
CALUMET HARBOR             43      20/ 12/ 15   N/A
BURNS HARBOR               44      40/ 15/ 17 1011.9S
MICHIGAN CITY              44      20/ 16/ 19   N/A
MICHIGAN CITY 6N           42 45   50/ 12/ 14   N/A           3/ 5
$$

ILZ025>027-034>036-040-047-049-050-058-095>099-261000-
WEST-CENTRAL ILLINOIS

CITY           SKY/WX    TMP DP  RH WIND       PRES   REMARKS
QUINCY         CLOUDY    45  39  81 NE14      29.87S
$$

ILZ028>032-037-038-041>044-048-051>054-059>061-261000-
CENTRAL ILLINOIS

CITY           SKY/WX    TMP DP  RH WIND       PRES   REMARKS
PEORIA         NOT AVBL
SPRINGFIELD    MOCLDY    44  40  85 N13       29.86R
TAYLORVILLE    NOT AVBL
$$

ILZ033-039-045-046-055>057-062-063-261000-
EAST-CENTRAL ILLINOIS

CITY           SKY/WX    TMP DP  RH WIND       PRES   REMARKS
CHAMPAIGN      PTCLDY    42  35  76 NE12      29.84R
MATTOON        CLOUDY    44  39  82 NE16      29.81R
$$

ILZ079-100>102-261000-
SOUTHWEST ILLINOIS

CITY           SKY/WX    TMP DP  RH WIND       PRES   REMARKS
BELLEVILLE     CLOUDY    46  46 100 VRB6      29.79R
CAHOKIA*       CLOUDY    48  44  86 NE12      29.82R
$$

ILZ064>066-069>071-074>076-080>082-084>086-088>090-092>094-261000-
SOUTH-CENTRAL ILLINOIS

CITY           SKY/WX    TMP DP  RH WIND       PRES   REMARKS
CARBONDALE     CLOUDY    50  46  86 N7        29.76R
$$

ILZ067-068-072-073-078-083-087-091-261000-
SOUTHEAST ILLINOIS

CITY           SKY/WX    TMP DP  RH WIND       PRES   REMARKS
$$

ABBREVIATIONS USED IN REMARKS
   TC - TEMPERATURE IN CELSIUS
  WCI - WIND CHILL INDEX
   HX - HEAT INDEX
  VSB - VISIBILITY
$$




USA.gov is the U.S. government's official web portal to all federal, state and local government web resources and services.